Regional Weather Roundup
Issued by NWS

Home | Current Version | Previous Version | Graphics & Text | Print | Product List | Glossary On
Versions: 1 2 3 4 5 6 7 8 9 10 11 12 13 14 15 16 17 18 19 20 21 22 23 24 25 26 27 28 29 30 31 32 33 34 35 36 37 38 39 40 41 42 43 44 45 46 47 48 49 50
000
ASUS44 KMEG 252210
RWRTN
TENNESSEE HOURLY STATE WEATHER ROUNDUP
NATIONAL WEATHER SERVICE MEMPHIS TN
500 PM CDT SAT OCT 25 2014

TNZ002-004-019-021-049-052-054-088>092-252300-
WEST TENNESSEE

CITY           SKY/WX    TMP DP  RH WIND       PRES   REMARKS
MEMPHIS INTL   SUNNY     81  63  54 SW6       30.02F
NWS MEMPHIS      N/A     82 N/A N/A MISG        N/A
JACKSON        SUNNY     80  62  54 W6        30.01S
DYERSBURG      SUNNY     81  57  44 SW7       30.01F
UNION CITY     SUNNY     79  63  57 NW7       29.99F
PARIS          SUNNY     75  63  64 VRB3      30.01S
HUNTINGDON     SUNNY     77  62  59 W7        30.01R
LEXINGTON      PTSUNNY   79  63  57 W5        30.01R
SAVANNAH       MOSUNNY   79  64  61 W6        30.02S
$$

TNZ008-025-027-028-033-062-065-066-252300-
NORTH MIDDLE TENNESSEE

CITY           SKY/WX    TMP DP  RH WIND       PRES   REMARKS
NASHVILLE      MOSUNNY   78  62  57 W7        30.00R
CLARKSVILLE    SUNNY     77  62  59 W7        29.99F
SMYRNA         MOSUNNY   78  63  60 NW7       30.01R
COOKEVILLE     MOCLDY    72  61  68 CALM      30.02S
CROSSVILLE     MOCLDY    68  55  63 W8        30.06R
$$

TNZ061-075-076-078-094-096-097-252300-
SOUTH MIDDLE TENNESSEE

CITY           SKY/WX    TMP DP  RH WIND       PRES   REMARKS
FAYETTEVILLE   MOSUNNY   72  57  60 SW6       30.02F
TULLAHOMA      MOSUNNY   73  57  56 CALM      30.03S
WINCHESTER     MOSUNNY   73  59  60 W3        30.03S
MCMINNVILLE    CLOUDY    73  63  68 CALM      30.03R
COLUMBIA       MOSUNNY   79  64  61 VRB3      30.00R
SHELBYVILLE    PTSUNNY   77  64  65 SW3       30.02S
$$

TNZ017-018-042-046-047-252300-
NORTHEAST TENNESSEE

CITY           SKY/WX    TMP DP  RH WIND       PRES   REMARKS
TRI CITIES     MOCLDY    66  49  54 SW9       30.01F
ELIZABETHTON   PTCLDY    63  46  55 W5        30.01F
$$

TNZ012-013-036-069-073-074-252300-
CENTRAL EAST TENNESSEE

CITY           SKY/WX    TMP DP  RH WIND       PRES   REMARKS
KNOXVILLE      PTCLDY    68  49  50 SW6       30.00F
OAK RIDGE      PTCLDY    71  50  47 SW5       30.02S
GATLINBURG     PTCLDY    70  46  43 SW3       30.00F
MORRISTOWN     MOCLDY    66  48  52 SW6       30.02F
$$

TNZ083-085-099-252300-
SOUTHEAST TENNESSEE

CITY           SKY/WX    TMP DP  RH WIND       PRES   REMARKS
CHATTANOOGA    MOCLDY    74  53  48 SE5       30.01F
$$

SKY/WX REPORTED AS FAIR MEANS FEW OR NO CLOUDS BELOW
12 THOUSAND FEET.




USA.gov is the U.S. government's official web portal to all federal, state and local government web resources and services.